When you browse on this site, cookies collect data to enhance your experience and personalize the content and advertising you see.
Visit our Privacy Policy to learn more. By continuing to use the site, you agree to this use of cookies and data.
  • în România
  • Lista ţărilor
  • Pe 7 zile
  • Temperatura apei
  • Meteo pe hartă
  • Widget-uri
  • user-avatar
    Intrare

    Meteo pe oră la Chachapoyas

    Astăzi, 25 Mai, Luni

    Timp Temperatura Precipitaţii Vânt Presiune Umiditate
    00:00 +14°C° 0.8 mm 1 m/s 574 mmHg 98%
    01:00 +14°C° 0 mm 1 m/s 574 mmHg 98%
    02:00 +14°C° 0.1 mm 1 m/s 574 mmHg 98%
    03:00 +13°C° 0.1 mm 1 m/s 573 mmHg 98%
    04:00 +13°C° 0.1 mm 1 m/s 573 mmHg 98%
    05:00 +13°C° 0 mm 1 m/s 573 mmHg 97%
    06:00 +13°C° 0 mm 1 m/s 573 mmHg 97%
    07:00 +14°C° 0 mm 1 m/s 574 mmHg 98%
    08:00 +15°C° 0.2 mm 1 m/s 575 mmHg 91%
    09:00 +18°C° 0.2 mm 1 m/s 576 mmHg 85%
    10:00 +20°C° 0.2 mm 1 m/s 577 mmHg 79%
    11:00 +20°C° 0.8 mm 1 m/s 577 mmHg 78%
    12:00 +20°C° 0.8 mm 2 m/s 576 mmHg 78%
    13:00 +20°C° 0.8 mm 2 m/s 576 mmHg 78%
    14:00 +19°C° 1.1 mm 2 m/s 575 mmHg 82%
    15:00 +18°C° 1.1 mm 2 m/s 574 mmHg 86%
    16:00 +17°C° 1.1 mm 2 m/s 574 mmHg 90%
    17:00 +16°C° 0.4 mm 1 m/s 573 mmHg 93%
    18:00 +15°C° 0.4 mm 1 m/s 573 mmHg 95%
    19:00 +14°C° 0.4 mm 1 m/s 573 mmHg 97%
    20:00 +13°C° 0 mm 1 m/s 574 mmHg 97%
    21:00 +13°C° 0 mm 1 m/s 574 mmHg 97%
    22:00 +13°C° 0 mm 1 m/s 574 mmHg 97%
    23:00 +13°C° 0 mm 1 m/s 574 mmHg 97%

    Mâine, 26 Mai, Marţi

    Timp Temperatura Precipitaţii Vânt Presiune Umiditate
    00:00 +12°C° 0 mm 1 m/s 574 mmHg 97%
    01:00 +12°C° 0 mm 1 m/s 574 mmHg 97%
    02:00 +12°C° 0 mm 1 m/s 573 mmHg 97%
    03:00 +11°C° 0 mm 1 m/s 573 mmHg 97%
    04:00 +11°C° 0 mm 1 m/s 572 mmHg 97%
    05:00 +11°C° 0 mm 1 m/s 573 mmHg 97%
    06:00 +12°C° 0 mm 1 m/s 573 mmHg 97%
    07:00 +12°C° 0 mm 1 m/s 574 mmHg 96%
    08:00 +14°C° 0.1 mm 1 m/s 575 mmHg 88%
    09:00 +17°C° 0.1 mm 2 m/s 576 mmHg 79%
    10:00 +19°C° 0.1 mm 2 m/s 578 mmHg 70%
    11:00 +19°C° 0.4 mm 2 m/s 577 mmHg 70%
    12:00 +19°C° 0.4 mm 2 m/s 576 mmHg 70%
    13:00 +19°C° 0.4 mm 2 m/s 576 mmHg 70%
    14:00 +19°C° 0.4 mm 2 m/s 575 mmHg 71%
    15:00 +19°C° 0.4 mm 2 m/s 575 mmHg 73%
    16:00 +18°C° 0.4 mm 2 m/s 574 mmHg 74%
    17:00 +16°C° 0.1 mm 2 m/s 573 mmHg 81%
    18:00 +15°C° 0.1 mm 2 m/s 573 mmHg 88%
    19:00 +13°C° 0.1 mm 1 m/s 572 mmHg 95%
    20:00 +12°C° 0 mm 1 m/s 573 mmHg 96%
    21:00 +12°C° 0 mm 1 m/s 573 mmHg 96%
    22:00 +12°C° 0 mm 1 m/s 573 mmHg 96%
    23:00 +11°C° 0 mm 1 m/s 573 mmHg 96%

    Poimâine, 27 Mai, Miercuri

    Timp Temperatura Precipitaţii Vânt Presiune Umiditate
    00:00 +11°C° 0 mm 1 m/s 573 mmHg 95%
    01:00 +10°C° 0 mm 1 m/s 572 mmHg 94%
    02:00 +10°C° 0 mm 1 m/s 572 mmHg 91%
    03:00 +9°C° 0 mm 1 m/s 571 mmHg 87%
    04:00 +9°C° 0 mm 1 m/s 571 mmHg 84%
    05:00 +9°C° 0 mm 1 m/s 571 mmHg 80%
    06:00 +8°C° 0 mm 2 m/s 572 mmHg 77%
    07:00 +8°C° 0 mm 2 m/s 572 mmHg 73%
    08:00 +13°C° 0 mm 2 m/s 574 mmHg 61%
    09:00 +16°C° 0 mm 2 m/s 576 mmHg 48%
    10:00 +19°C° 0 mm 2 m/s 577 mmHg 36%
    11:00 +20°C° 0 mm 2 m/s 577 mmHg 35%
    12:00 +20°C° 0 mm 2 m/s 576 mmHg 34%
    13:00 +21°C° 0 mm 2 m/s 576 mmHg 33%
    14:00 +21°C° 0 mm 2 m/s 575 mmHg 35%
    15:00 +20°C° 0 mm 2 m/s 574 mmHg 37%
    16:00 +20°C° 0 mm 2 m/s 574 mmHg 39%
    17:00 +18°C° 0 mm 1 m/s 573 mmHg 48%
    18:00 +14°C° 0 mm 1 m/s 572 mmHg 58%
    19:00 +11°C° 0 mm 1 m/s 570 mmHg 67%
    20:00 +10°C° 0 mm 1 m/s 571 mmHg 67%
    21:00 +10°C° 0 mm 1 m/s 571 mmHg 66%
    22:00 +9°C° 0 mm 1 m/s 571 mmHg 66%
    23:00 +9°C° 0 mm 1 m/s 571 mmHg 67%

    28 Mai, Joi

    Timp Temperatura Precipitaţii Vânt Presiune Umiditate
    00:00 +9°C° 0 mm 1 m/s 571 mmHg 68%
    01:00 +8°C° 0 mm 1 m/s 571 mmHg 69%
    02:00 +8°C° 0 mm 1 m/s 570 mmHg 68%
    03:00 +8°C° 0 mm 1 m/s 570 mmHg 68%
    04:00 +8°C° 0 mm 1 m/s 570 mmHg 67%
    05:00 +8°C° 0 mm 1 m/s 570 mmHg 65%
    06:00 +9°C° 0 mm 1 m/s 571 mmHg 63%
    07:00 +9°C° 0 mm 1 m/s 571 mmHg 60%
    08:00 +13°C° 0 mm 1 m/s 573 mmHg 51%
    09:00 +18°C° 0 mm 1 m/s 575 mmHg 41%
    10:00 +21°C° 0 mm 1 m/s 577 mmHg 31%
    11:00 +22°C° 0 mm 1 m/s 576 mmHg 30%
    12:00 +23°C° 0 mm 1 m/s 576 mmHg 28%
    13:00 +24°C° 0 mm 1 m/s 576 mmHg 27%
    14:00 +23°C° 0 mm 1 m/s 575 mmHg 31%
    15:00 +22°C° 0 mm 1 m/s 574 mmHg 35%
    16:00 +22°C° 0 mm 1 m/s 573 mmHg 39%
    17:00 +19°C° 0 mm 1 m/s 572 mmHg 53%
    18:00 +15°C° 0 mm 1 m/s 572 mmHg 67%
    19:00 +11°C° 0 mm 0 m/s 571 mmHg 81%
    20:00 +10°C° 0 mm 0 m/s 571 mmHg 82%
    21:00 +10°C° 0 mm 0 m/s 571 mmHg 83%
    22:00 +9°C° 0 mm 0 m/s 571 mmHg 84%
    23:00 +9°C° 0 mm 0 m/s 571 mmHg 86%

    29 Mai, Vineri

    Timp Temperatura Precipitaţii Vânt Presiune Umiditate
    00:00 +9°C° 0 mm 0 m/s 571 mmHg 87%
    01:00 +9°C° 0 mm 0 m/s 571 mmHg 89%
    02:00 +9°C° 0 mm 0 m/s 571 mmHg 91%
    03:00 +9°C° 0 mm 0 m/s 570 mmHg 92%
    04:00 +9°C° 0 mm 0 m/s 570 mmHg 94%
    05:00 +9°C° 0 mm 0 m/s 571 mmHg 92%
    06:00 +10°C° 0 mm 0 m/s 571 mmHg 91%
    07:00 +10°C° 0 mm 0 m/s 572 mmHg 89%
    08:00 +13°C° 0 mm 0 m/s 573 mmHg 76%
    09:00 +16°C° 0 mm 0 m/s 575 mmHg 64%
    10:00 +20°C° 0 mm 0 m/s 577 mmHg 51%
    11:00 +22°C° 0 mm 1 m/s 576 mmHg 50%
    12:00 +22°C° 0 mm 1 m/s 576 mmHg 50%
    13:00 +23°C° 0 mm 1 m/s 575 mmHg 49%
    14:00 +21°C° 0.2 mm 1 m/s 574 mmHg 59%
    15:00 +20°C° 0.2 mm 1 m/s 573 mmHg 69%
    16:00 +19°C° 0.2 mm 1 m/s 572 mmHg 78%
    17:00 +15°C° 0.1 mm 0 m/s 571 mmHg 83%
    18:00 +14°C° 0.1 mm 0 m/s 571 mmHg 88%
    19:00 +13°C° 0.1 mm 0 m/s 571 mmHg 93%
    20:00 +13°C° 0 mm 0 m/s 572 mmHg 92%
    21:00 +13°C° 0 mm 0 m/s 572 mmHg 92%
    22:00 +13°C° 0 mm 0 m/s 573 mmHg 92%
    23:00 +13°C° 0.1 mm 0 m/s 573 mmHg 93%

    30 Mai, Sâmbătă

    Timp Temperatura Precipitaţii Vânt Presiune Umiditate
    00:00 +12°C° 0.1 mm 0 m/s 573 mmHg 93%
    01:00 +12°C° 0.1 mm 0 m/s 572 mmHg 94%
    02:00 +12°C° 0 mm 0 m/s 572 mmHg 94%
    03:00 +12°C° 0 mm 0 m/s 572 mmHg 94%
    04:00 +12°C° 0 mm 0 m/s 572 mmHg 95%
    05:00 +12°C° 0 mm 0 m/s 572 mmHg 95%
    06:00 +12°C° 0 mm 0 m/s 573 mmHg 95%
    07:00 +12°C° 0 mm 0 m/s 573 mmHg 95%
    08:00 +14°C° 0.2 mm 0 m/s 574 mmHg 88%
    09:00 +16°C° 0.2 mm 0 m/s 575 mmHg 82%
    10:00 +18°C° 0.2 mm 0 m/s 576 mmHg 75%
    11:00 +18°C° 1.1 mm 0 m/s 575 mmHg 77%
    12:00 +20°C° 1.1 mm 1 m/s 575 mmHg 78%
    13:00 +21°C° 1.1 mm 1 m/s 574 mmHg 80%
    14:00 +20°C° 1.6 mm 1 m/s 573 mmHg 83%
    15:00 +20°C° 1.6 mm 1 m/s 573 mmHg 85%
    16:00 +19°C° 1.6 mm 1 m/s 572 mmHg 88%
    17:00 +18°C° 0.6 mm 1 m/s 572 mmHg 91%
    18:00 +15°C° 0.6 mm 1 m/s 572 mmHg 94%
    19:00 +14°C° 0.6 mm 1 m/s 572 mmHg 97%
    20:00 +14°C° 0 mm 1 m/s 572 mmHg 97%
    21:00 +14°C° 0 mm 1 m/s 572 mmHg 97%
    22:00 +13°C° 0 mm 1 m/s 573 mmHg 97%
    23:00 +13°C° 0 mm 1 m/s 573 mmHg 97%
    Arată mai mult